When you browse on this site, cookies collect data to enhance your experience and personalize the content and advertising you see.
Visit our Privacy Policy to learn more. By continuing to use the site, you agree to this use of cookies and data.
EN

Hourly Weather Vidin

Today, 8 July, Wednesday

Time Temperature Precipitation Wind Pressure Humidity
00:00 +16°C° 0 mm 5 mps 759 mmHg 75%
01:00 +15°C° 0 mm 5 mps 759 mmHg 77%
02:00 +14°C° 0 mm 4 mps 759 mmHg 78%
03:00 +14°C° 0 mm 4 mps 759 mmHg 80%
04:00 +13°C° 0 mm 4 mps 759 mmHg 82%
05:00 +13°C° 0 mm 3 mps 759 mmHg 84%
06:00 +16°C° 0 mm 3 mps 760 mmHg 76%
07:00 +17°C° 0 mm 3 mps 760 mmHg 68%
08:00 +19°C° 0 mm 3 mps 760 mmHg 61%
09:00 +21°C° 0 mm 3 mps 760 mmHg 55%
10:00 +23°C° 0 mm 2 mps 760 mmHg 50%
11:00 +25°C° 0 mm 2 mps 760 mmHg 44%
12:00 +26°C° 0 mm 1 mps 760 mmHg 42%
13:00 +27°C° 0 mm 1 mps 760 mmHg 39%
14:00 +28°C° 0 mm 1 mps 759 mmHg 36%
15:00 +28°C° 0 mm 1 mps 759 mmHg 36%
16:00 +28°C° 0 mm 1 mps 759 mmHg 35%
17:00 +29°C° 0 mm 1 mps 759 mmHg 35%
18:00 +27°C° 0 mm 1 mps 759 mmHg 41%
19:00 +25°C° 0 mm 1 mps 759 mmHg 48%
20:00 +23°C° 0 mm 2 mps 759 mmHg 55%
21:00 +22°C° 0 mm 1 mps 760 mmHg 59%
22:00 +20°C° 0 mm 1 mps 760 mmHg 62%
23:00 +19°C° 0 mm 1 mps 760 mmHg 66%

Tomorrow, 9 July, Thursday

Time Temperature Precipitation Wind Pressure Humidity
00:00 +19°C° 0 mm 1 mps 760 mmHg 68%
01:00 +18°C° 0 mm 1 mps 761 mmHg 70%
02:00 +18°C° 0 mm 1 mps 761 mmHg 72%
03:00 +16°C° 0 mm 1 mps 761 mmHg 74%
04:00 +16°C° 0 mm 1 mps 761 mmHg 77%
05:00 +15°C° 0 mm 1 mps 761 mmHg 80%
06:00 +18°C° 0 mm 1 mps 761 mmHg 73%
07:00 +20°C° 0 mm 1 mps 761 mmHg 66%
08:00 +22°C° 0 mm 1 mps 761 mmHg 60%
09:00 +24°C° 0 mm 1 mps 761 mmHg 54%
10:00 +27°C° 0 mm 1 mps 761 mmHg 48%
11:00 +27°C° 0 mm 0 mps 761 mmHg 43%
12:00 +30°C° 0 mm 1 mps 761 mmHg 39%
13:00 +31°C° 0 mm 1 mps 760 mmHg 36%
14:00 +32°C° 0 mm 1 mps 760 mmHg 32%
15:00 +32°C° 0 mm 1 mps 760 mmHg 32%
16:00 +32°C° 0 mm 1 mps 760 mmHg 32%
17:00 +32°C° 0 mm 1 mps 759 mmHg 32%
18:00 +30°C° 0 mm 1 mps 759 mmHg 38%
19:00 +28°C° 0 mm 2 mps 759 mmHg 43%
20:00 +26°C° 0 mm 2 mps 759 mmHg 49%
21:00 +25°C° 0 mm 1 mps 760 mmHg 52%
22:00 +23°C° 0 mm 1 mps 760 mmHg 55%
23:00 +22°C° 0 mm 1 mps 760 mmHg 58%

Day after tomorrow, 10 July, Friday

Time Temperature Precipitation Wind Pressure Humidity
00:00 +22°C° 0 mm 1 mps 760 mmHg 60%
01:00 +19°C° 0 mm 0 mps 760 mmHg 61%
02:00 +19°C° 0 mm 0 mps 760 mmHg 63%
03:00 +18°C° 0 mm 0 mps 760 mmHg 65%
04:00 +18°C° 0 mm 0 mps 760 mmHg 67%
05:00 +17°C° 0 mm 0 mps 760 mmHg 69%
06:00 +21°C° 0 mm 1 mps 760 mmHg 64%
07:00 +23°C° 0 mm 1 mps 760 mmHg 59%
08:00 +25°C° 0 mm 1 mps 760 mmHg 55%
09:00 +27°C° 0 mm 2 mps 760 mmHg 50%
10:00 +29°C° 0 mm 3 mps 760 mmHg 46%
11:00 +31°C° 0 mm 3 mps 760 mmHg 42%
12:00 +33°C° 0 mm 4 mps 759 mmHg 39%
13:00 +34°C° 0 mm 4 mps 759 mmHg 37%
14:00 +35°C° 0 mm 5 mps 759 mmHg 34%
15:00 +35°C° 0 mm 5 mps 758 mmHg 35%
16:00 +35°C° 0 mm 5 mps 758 mmHg 36%
17:00 +34°C° 0 mm 5 mps 758 mmHg 36%
18:00 +32°C° 0 mm 4 mps 758 mmHg 43%
19:00 +29°C° 0 mm 4 mps 758 mmHg 49%
20:00 +27°C° 0 mm 3 mps 758 mmHg 55%
21:00 +26°C° 0 mm 3 mps 758 mmHg 59%
22:00 +25°C° 0 mm 3 mps 758 mmHg 63%
23:00 +24°C° 0 mm 3 mps 759 mmHg 67%

11 July, Saturday

Time Temperature Precipitation Wind Pressure Humidity
00:00 +23°C° 0 mm 2 mps 759 mmHg 68%
01:00 +21°C° 0 mm 2 mps 758 mmHg 70%
02:00 +21°C° 0 mm 2 mps 758 mmHg 71%
03:00 +20°C° 0 mm 2 mps 758 mmHg 74%
04:00 +19°C° 0 mm 2 mps 758 mmHg 76%
05:00 +19°C° 0 mm 2 mps 758 mmHg 78%
06:00 +20°C° 0 mm 2 mps 758 mmHg 73%
07:00 +22°C° 0 mm 3 mps 758 mmHg 67%
08:00 +25°C° 0 mm 3 mps 758 mmHg 61%
09:00 +27°C° 0 mm 4 mps 758 mmHg 54%
10:00 +29°C° 0 mm 4 mps 758 mmHg 48%
11:00 +32°C° 0 mm 5 mps 758 mmHg 41%
12:00 +33°C° 0 mm 5 mps 757 mmHg 38%
13:00 +34°C° 0 mm 5 mps 757 mmHg 35%
14:00 +35°C° 0 mm 5 mps 757 mmHg 32%
15:00 +35°C° 0 mm 5 mps 756 mmHg 32%
16:00 +35°C° 0 mm 4 mps 756 mmHg 33%
17:00 +35°C° 0 mm 4 mps 756 mmHg 33%
18:00 +33°C° 0 mm 4 mps 756 mmHg 40%
19:00 +30°C° 0 mm 3 mps 756 mmHg 47%
20:00 +28°C° 0 mm 3 mps 756 mmHg 55%
21:00 +27°C° 0 mm 3 mps 756 mmHg 59%
22:00 +25°C° 0 mm 2 mps 757 mmHg 63%
23:00 +24°C° 0 mm 2 mps 757 mmHg 68%

12 July, Sunday

Time Temperature Precipitation Wind Pressure Humidity
00:00 +23°C° 0 mm 2 mps 757 mmHg 71%
01:00 +23°C° 0 mm 1 mps 757 mmHg 75%
02:00 +22°C° 0 mm 1 mps 757 mmHg 78%
03:00 +21°C° 0 mm 2 mps 758 mmHg 78%
04:00 +20°C° 0 mm 4 mps 758 mmHg 79%
05:00 +20°C° 0 mm 5 mps 758 mmHg 80%
06:00 +21°C° 0 mm 6 mps 758 mmHg 74%
07:00 +22°C° 0 mm 6 mps 759 mmHg 68%
08:00 +24°C° 0 mm 7 mps 759 mmHg 62%
09:00 +24°C° 0 mm 7 mps 759 mmHg 59%
10:00 +26°C° 0 mm 8 mps 760 mmHg 55%
11:00 +27°C° 0 mm 9 mps 760 mmHg 52%
12:00 +28°C° 0 mm 9 mps 759 mmHg 50%
13:00 +28°C° 0 mm 9 mps 759 mmHg 48%
14:00 +29°C° 0 mm 9 mps 759 mmHg 46%
15:00 +28°C° 0 mm 9 mps 759 mmHg 46%
16:00 +28°C° 0 mm 9 mps 759 mmHg 46%
17:00 +28°C° 0 mm 9 mps 759 mmHg 46%
18:00 +26°C° 0 mm 8 mps 759 mmHg 50%
19:00 +24°C° 0 mm 7 mps 759 mmHg 54%
20:00 +22°C° 0 mm 6 mps 759 mmHg 58%
21:00 +21°C° 0 mm 6 mps 760 mmHg 60%
22:00 +20°C° 0 mm 6 mps 760 mmHg 62%
23:00 +19°C° 0 mm 6 mps 761 mmHg 65%

13 July, Monday

Time Temperature Precipitation Wind Pressure Humidity
00:00 +19°C° 0 mm 6 mps 761 mmHg 67%
01:00 +17°C° 0 mm 5 mps 761 mmHg 69%
02:00 +17°C° 0 mm 5 mps 761 mmHg 71%
03:00 +17°C° 0 mm 4 mps 761 mmHg 72%
04:00 +17°C° 0 mm 4 mps 761 mmHg 72%
05:00 +17°C° 0 mm 4 mps 761 mmHg 73%
06:00 +18°C° 0 mm 4 mps 761 mmHg 69%
07:00 +19°C° 0 mm 4 mps 761 mmHg 66%
08:00 +20°C° 0 mm 4 mps 761 mmHg 63%
09:00 +21°C° 0 mm 3 mps 761 mmHg 61%
10:00 +22°C° 0 mm 3 mps 761 mmHg 59%
11:00 +24°C° 0 mm 3 mps 761 mmHg 58%
12:00 +25°C° 0 mm 3 mps 761 mmHg 55%
13:00 +26°C° 0 mm 3 mps 760 mmHg 53%
14:00 +26°C° 0 mm 3 mps 760 mmHg 51%
15:00 +27°C° 0 mm 3 mps 760 mmHg 48%
16:00 +27°C° 0 mm 2 mps 760 mmHg 46%
17:00 +28°C° 0 mm 2 mps 759 mmHg 43%
18:00 +26°C° 0 mm 2 mps 759 mmHg 49%
19:00 +25°C° 0 mm 2 mps 760 mmHg 54%
20:00 +23°C° 0 mm 2 mps 760 mmHg 60%
21:00 +21°C° 0 mm 2 mps 760 mmHg 65%
22:00 +20°C° 0 mm 2 mps 760 mmHg 69%
23:00 +19°C° 0 mm 1 mps 760 mmHg 74%
Show more